Time,TemperatureF,DewpointF,PressureIn,WindDirection,WindDirectionDegrees,WindSpeedMPH,WindSpeedGustMPH,Humidity,HourlyPrecipIn,Conditions,Clouds,dailyrainin,SoftwareType,DateUTC
2013-02-05 00:00:00,45.5,16.6,29.98,North,353,1.0,0.0,31,0.00,,---,0.00,VWS V13.01,2013-02-05 08:00:00,
2013-02-05 00:05:00,45.7,17.5,29.98,North,353,1.0,0.0,32,0.00,,---,0.00,VWS V13.01,2013-02-05 08:05:00,
2013-02-05 00:10:00,45.7,17.5,29.98,North,353,1.0,0.0,32,0.00,,---,0.00,VWS V13.01,2013-02-05 08:10:00,
2013-02-05 00:15:00,45.7,17.5,29.98,North,353,1.0,0.0,32,0.00,,---,0.00,VWS V13.01,2013-02-05 08:15:00,
2013-02-05 00:20:00,45.5,17.4,29.98,North,353,1.0,0.0,32,0.00,,---,0.00,VWS V13.01,2013-02-05 08:20:00,
2013-02-05 00:25:00,45.5,17.4,29.98,North,353,1.0,0.0,32,0.00,,---,0.00,VWS V13.01,2013-02-05 08:25:00,
2013-02-05 00:30:00,45.5,17.4,29.98,North,353,1.0,0.0,32,0.00,,---,0.00,VWS V13.01,2013-02-05 08:30:00,
2013-02-05 00:35:00,45.3,17.2,29.98,North,353,1.0,0.0,32,0.00,,---,0.00,VWS V13.01,2013-02-05 08:35:00,
2013-02-05 00:40:00,45.3,17.2,29.98,North,353,1.0,0.0,32,0.00,,---,0.00,VWS V13.01,2013-02-05 08:40:00,
2013-02-05 00:45:00,45.3,17.2,29.98,North,353,1.0,0.0,32,0.00,,---,0.00,VWS V13.01,2013-02-05 08:45:00,
2013-02-05 00:50:00,45.3,17.2,29.98,North,353,1.0,0.0,32,0.00,,---,0.00,VWS V13.01,2013-02-05 08:50:00,
2013-02-05 00:55:00,45.1,17.1,29.98,North,353,1.0,0.0,32,0.00,,---,0.00,VWS V13.01,2013-02-05 08:55:00,
2013-02-05 01:00:00,45.1,17.1,29.98,North,353,1.0,0.0,32,0.00,,---,0.00,VWS V13.01,2013-02-05 09:00:00,
2013-02-05 01:05:00,45.1,17.1,29.98,North,353,1.0,0.0,32,0.00,,---,0.00,VWS V13.01,2013-02-05 09:05:00,
2013-02-05 01:10:00,45.1,17.1,29.98,North,353,1.0,0.0,32,0.00,,---,0.00,VWS V13.01,2013-02-05 09:10:00,
2013-02-05 01:15:00,45.1,16.3,29.98,North,353,1.0,0.0,31,0.00,,---,0.00,VWS V13.01,2013-02-05 09:15:00,
2013-02-05 01:20:00,45.1,16.3,29.98,North,353,1.0,0.0,31,0.00,,---,0.00,VWS V13.01,2013-02-05 09:20:00,
2013-02-05 01:25:00,45.1,16.3,29.98,North,353,1.0,0.0,31,0.00,,---,0.00,VWS V13.01,2013-02-05 09:25:00,
2013-02-05 01:30:00,45.1,16.3,29.98,North,353,1.0,0.0,31,0.00,,---,0.00,VWS V13.01,2013-02-05 09:30:00,
2013-02-05 01:35:00,45.1,16.3,29.98,North,353,1.0,0.0,31,0.00,,---,0.00,VWS V13.01,2013-02-05 09:35:00,
2013-02-05 01:40:00,45.1,17.1,29.98,North,353,1.0,0.0,32,0.00,,---,0.00,VWS V13.01,2013-02-05 09:40:00,
2013-02-05 01:45:00,45.0,16.9,29.98,North,353,1.0,0.0,32,0.00,,---,0.00,VWS V13.01,2013-02-05 09:45:00,
2013-02-05 01:50:00,44.8,16.7,29.98,North,353,1.0,0.0,32,0.00,,---,0.00,VWS V13.01,2013-02-05 09:50:00,
2013-02-05 01:55:00,44.6,16.6,29.95,North,353,1.0,0.0,32,0.00,,---,0.00,VWS V13.01,2013-02-05 09:55:00,
2013-02-05 02:00:00,44.4,17.1,29.95,North,353,1.0,0.0,33,0.00,,---,0.00,VWS V13.01,2013-02-05 10:00:00,
2013-02-05 02:05:00,44.2,17.0,29.95,North,353,1.0,0.0,33,0.00,,---,0.00,VWS V13.01,2013-02-05 10:05:00,
2013-02-05 02:10:00,43.9,17.4,29.98,North,353,1.0,0.0,34,0.00,,---,0.00,VWS V13.01,2013-02-05 10:10:00,
2013-02-05 02:15:00,43.5,17.0,29.98,North,353,1.0,0.0,34,0.00,,---,0.00,VWS V13.01,2013-02-05 10:15:00,
2013-02-05 02:20:00,43.3,17.5,29.98,North,353,1.0,0.0,35,0.00,,---,0.00,VWS V13.01,2013-02-05 10:20:00,
2013-02-05 02:25:00,43.0,17.9,29.95,North,353,1.0,0.0,36,0.00,,---,0.00,VWS V13.01,2013-02-05 10:25:00,
2013-02-05 02:30:00,42.8,18.4,29.95,North,353,1.0,0.0,37,0.00,,---,0.00,VWS V13.01,2013-02-05 10:30:00,
2013-02-05 02:35:00,42.4,18.6,29.95,North,353,1.0,0.0,38,0.00,,---,0.00,VWS V13.01,2013-02-05 10:35:00,
2013-02-05 02:40:00,42.3,18.5,29.95,North,353,1.0,0.0,38,0.00,,---,0.00,VWS V13.01,2013-02-05 10:40:00,
2013-02-05 02:45:00,42.3,19.1,29.95,North,353,1.0,0.0,39,0.00,,---,0.00,VWS V13.01,2013-02-05 10:45:00,
2013-02-05 02:50:00,42.1,18.9,29.95,North,353,1.0,0.0,39,0.00,,---,0.00,VWS V13.01,2013-02-05 10:50:00,
2013-02-05 02:55:00,42.1,19.5,29.95,North,353,1.0,0.0,40,0.00,,---,0.00,VWS V13.01,2013-02-05 10:55:00,
2013-02-05 03:00:00,42.1,19.5,29.95,North,353,1.0,0.0,40,0.00,,---,0.00,VWS V13.01,2013-02-05 11:00:00,
2013-02-05 03:05:00,41.9,19.4,29.95,North,353,1.0,0.0,40,0.00,,---,0.00,VWS V13.01,2013-02-05 11:05:00,
2013-02-05 03:10:00,41.9,19.4,29.95,North,353,1.0,0.0,40,0.00,,---,0.00,VWS V13.01,2013-02-05 11:10:00,
2013-02-05 03:15:00,41.7,19.8,29.95,North,353,1.0,0.0,41,0.00,,---,0.00,VWS V13.01,2013-02-05 11:15:00,
2013-02-05 03:20:00,41.7,19.8,29.95,North,353,1.0,0.0,41,0.00,,---,0.00,VWS V13.01,2013-02-05 11:20:00,
2013-02-05 03:25:00,41.7,19.8,29.95,North,353,1.0,0.0,41,0.00,,---,0.00,VWS V13.01,2013-02-05 11:25:00,
2013-02-05 03:30:00,41.5,19.6,29.95,North,353,1.0,0.0,41,0.00,,---,0.00,VWS V13.01,2013-02-05 11:30:00,
2013-02-05 03:35:00,41.5,19.6,29.95,North,353,1.0,0.0,41,0.00,,---,0.00,VWS V13.01,2013-02-05 11:35:00,
2013-02-05 03:39:00,41.5,19.6,29.95,North,353,1.0,0.0,41,0.00,,---,0.00,VWS V13.01,2013-02-05 11:39:00,
2013-02-05 03:44:00,41.4,19.5,29.95,North,353,1.0,0.0,41,0.00,,---,0.00,VWS V13.01,2013-02-05 11:44:00,
2013-02-05 03:50:00,41.2,19.9,29.95,North,353,1.0,0.0,42,0.00,,---,0.00,VWS V13.01,2013-02-05 11:50:00,
2013-02-05 03:55:00,41.2,19.9,29.95,North,353,1.0,0.0,42,0.00,,---,0.00,VWS V13.01,2013-02-05 11:55:00,
2013-02-05 04:00:00,41.0,19.7,29.95,North,353,1.0,0.0,42,0.00,,---,0.00,VWS V13.01,2013-02-05 12:00:00,
2013-02-05 04:05:00,41.0,19.7,29.95,North,353,1.0,0.0,42,0.00,,---,0.00,VWS V13.01,2013-02-05 12:05:00,
2013-02-05 04:10:00,41.0,19.7,29.95,North,353,1.0,0.0,42,0.00,,---,0.00,VWS V13.01,2013-02-05 12:10:00,
2013-02-05 04:15:00,41.0,19.7,29.95,North,353,1.0,0.0,42,0.00,,---,0.00,VWS V13.01,2013-02-05 12:15:00,
2013-02-05 04:20:00,40.8,19.5,29.95,North,353,1.0,0.0,42,0.00,,---,0.00,VWS V13.01,2013-02-05 12:20:00,
2013-02-05 04:25:00,40.8,19.5,29.95,North,353,1.0,0.0,42,0.00,,---,0.00,VWS V13.01,2013-02-05 12:25:00,
2013-02-05 04:30:00,40.6,19.4,29.95,North,353,1.0,0.0,42,0.00,,---,0.00,VWS V13.01,2013-02-05 12:30:00,
2013-02-05 04:35:00,40.6,19.4,29.95,North,353,1.0,0.0,42,0.00,,---,0.00,VWS V13.01,2013-02-05 12:35:00,
2013-02-05 04:40:00,40.6,19.4,29.95,North,353,1.0,0.0,42,0.00,,---,0.00,VWS V13.01,2013-02-05 12:40:00,
2013-02-05 04:45:00,40.6,19.4,29.95,North,353,1.0,0.0,42,0.00,,---,0.00,VWS V13.01,2013-02-05 12:45:00,
2013-02-05 04:50:00,40.6,19.4,29.95,North,353,1.0,0.0,42,0.00,,---,0.00,VWS V13.01,2013-02-05 12:50:00,
2013-02-05 04:55:00,40.6,19.4,29.95,North,353,1.0,0.0,42,0.00,,---,0.00,VWS V13.01,2013-02-05 12:55:00,
2013-02-05 05:00:00,40.6,19.4,29.95,North,353,1.0,0.0,42,0.00,,---,0.00,VWS V13.01,2013-02-05 13:00:00,
2013-02-05 05:05:00,40.6,19.4,29.95,North,353,1.0,0.0,42,0.00,,---,0.00,VWS V13.01,2013-02-05 13:05:00,
2013-02-05 05:10:00,40.6,19.4,29.92,North,353,1.0,0.0,42,0.00,,---,0.00,VWS V13.01,2013-02-05 13:10:00,
2013-02-05 05:15:00,40.6,19.4,29.92,North,353,1.0,0.0,42,0.00,,---,0.00,VWS V13.01,2013-02-05 13:15:00,
2013-02-05 05:20:00,40.6,19.4,29.92,North,353,1.0,0.0,42,0.00,,---,0.00,VWS V13.01,2013-02-05 13:20:00,
2013-02-05 05:25:00,40.6,19.4,29.92,North,353,1.0,0.0,42,0.00,,---,0.00,VWS V13.01,2013-02-05 13:25:00,
2013-02-05 05:30:00,40.8,19.0,29.92,North,353,1.0,0.0,41,0.00,,---,0.00,VWS V13.01,2013-02-05 13:30:00,
2013-02-05 05:35:00,40.8,19.0,29.92,North,353,1.0,0.0,41,0.00,,---,0.00,VWS V13.01,2013-02-05 13:35:00,
2013-02-05 05:40:00,40.8,19.5,29.92,North,353,1.0,0.0,42,0.00,,---,0.00,VWS V13.01,2013-02-05 13:40:00,
2013-02-05 05:45:00,40.8,19.5,29.92,North,353,1.0,0.0,42,0.00,,---,0.00,VWS V13.01,2013-02-05 13:45:00,
2013-02-05 05:50:00,40.8,19.5,29.92,North,353,1.0,0.0,42,0.00,,---,0.00,VWS V13.01,2013-02-05 13:50:00,
2013-02-05 05:55:00,41.0,19.1,29.92,North,353,1.0,0.0,41,0.00,,---,0.00,VWS V13.01,2013-02-05 13:55:00,
2013-02-05 06:00:00,41.2,19.3,29.92,North,353,1.0,0.0,41,0.00,,---,0.00,VWS V13.01,2013-02-05 14:00:00,
2013-02-05 06:05:00,41.4,19.5,29.92,North,353,1.0,0.0,41,0.00,,---,0.00,VWS V13.01,2013-02-05 14:05:00,
2013-02-05 06:10:00,41.5,19.6,29.92,North,353,1.0,0.0,41,0.00,,---,0.00,VWS V13.01,2013-02-05 14:10:00,
2013-02-05 06:15:00,41.7,19.8,29.92,North,353,1.0,0.0,41,0.00,,---,0.00,VWS V13.01,2013-02-05 14:15:00,
2013-02-05 06:20:00,41.7,19.8,29.92,North,353,1.0,0.0,41,0.00,,---,0.00,VWS V13.01,2013-02-05 14:20:00,
2013-02-05 06:25:00,41.7,19.8,29.92,North,353,1.0,0.0,41,0.00,,---,0.00,VWS V13.01,2013-02-05 14:25:00,
2013-02-05 06:30:00,41.7,19.8,29.92,North,353,1.0,0.0,41,0.00,,---,0.00,VWS V13.01,2013-02-05 14:30:00,
2013-02-05 06:35:00,41.7,19.8,29.92,North,353,1.0,0.0,41,0.00,,---,0.00,VWS V13.01,2013-02-05 14:35:00,
2013-02-05 06:40:00,41.7,19.8,29.92,North,353,1.0,0.0,41,0.00,,---,0.00,VWS V13.01,2013-02-05 14:40:00,
2013-02-05 06:45:00,41.7,19.8,29.92,North,353,1.0,0.0,41,0.00,,---,0.00,VWS V13.01,2013-02-05 14:45:00,
2013-02-05 06:50:00,41.7,19.2,29.92,North,353,1.0,0.0,40,0.00,,---,0.00,VWS V13.01,2013-02-05 14:50:00,
2013-02-05 06:55:00,41.7,19.2,29.95,North,353,1.0,0.0,40,0.00,,---,0.00,VWS V13.01,2013-02-05 14:55:00,
2013-02-05 07:00:00,41.9,19.4,29.95,North,353,1.0,0.0,40,0.00,,---,0.00,VWS V13.01,2013-02-05 15:00:00,
2013-02-05 07:05:00,41.9,19.4,29.95,North,353,1.0,0.0,40,0.00,,---,0.00,VWS V13.01,2013-02-05 15:05:00,
2013-02-05 07:10:00,42.1,19.5,29.95,North,353,1.0,0.0,40,0.00,,---,0.00,VWS V13.01,2013-02-05 15:10:00,
2013-02-05 07:15:00,42.3,19.7,29.95,North,353,1.0,0.0,40,0.00,,---,0.00,VWS V13.01,2013-02-05 15:15:00,
2013-02-05 07:20:00,42.4,19.8,29.95,North,353,1.0,0.0,40,0.00,,---,0.00,VWS V13.01,2013-02-05 15:20:00,
2013-02-05 07:25:00,42.6,20.6,29.95,North,353,1.0,0.0,41,0.00,,---,0.00,VWS V13.01,2013-02-05 15:25:00,
2013-02-05 07:30:00,43.0,20.3,29.95,North,353,1.0,0.0,40,0.00,,---,0.00,VWS V13.01,2013-02-05 15:30:00,
2013-02-05 07:34:00,43.3,20.6,29.95,North,353,1.0,0.0,40,0.00,,---,0.00,VWS V13.01,2013-02-05 15:34:00,
2013-02-05 07:39:00,43.7,21.0,29.95,North,353,1.0,0.0,40,0.00,,---,0.00,VWS V13.01,2013-02-05 15:39:00,
2013-02-05 07:44:00,44.2,21.5,29.95,North,353,1.0,0.0,40,0.00,,---,0.00,VWS V13.01,2013-02-05 15:44:00,
2013-02-05 07:49:00,44.6,21.8,29.95,North,353,1.0,0.0,40,0.00,,---,0.00,VWS V13.01,2013-02-05 15:49:00,
2013-02-05 07:54:00,44.8,22.0,29.95,North,353,1.0,0.0,40,0.00,,---,0.00,VWS V13.01,2013-02-05 15:54:00,
2013-02-05 07:59:00,45.1,22.3,29.95,North,353,1.0,0.0,40,0.00,,---,0.00,VWS V13.01,2013-02-05 15:59:00,
2013-02-05 08:05:00,45.5,22.6,29.95,North,353,1.0,0.0,40,0.00,,---,0.00,VWS V13.01,2013-02-05 16:05:00,
2013-02-05 08:10:00,46.0,23.1,29.95,North,353,1.0,0.0,40,0.00,,---,0.00,VWS V13.01,2013-02-05 16:10:00,
2013-02-05 08:15:00,46.4,22.8,29.95,North,353,1.0,0.0,39,0.00,,---,0.00,VWS V13.01,2013-02-05 16:15:00,
2013-02-05 08:20:00,46.9,23.3,29.95,North,353,1.0,0.0,39,0.00,,---,0.00,VWS V13.01,2013-02-05 16:20:00,
2013-02-05 08:24:00,47.8,24.1,29.95,North,353,1.0,0.0,39,0.00,,---,0.00,VWS V13.01,2013-02-05 16:24:00,
2013-02-05 08:29:00,48.6,24.7,29.95,North,353,1.0,0.0,39,0.00,,---,0.00,VWS V13.01,2013-02-05 16:29:00,
2013-02-05 08:34:00,48.9,25.1,29.95,North,353,1.0,0.0,39,0.00,,---,0.00,VWS V13.01,2013-02-05 16:34:00,
2013-02-05 08:39:00,49.5,25.5,29.95,North,353,1.0,0.0,39,0.00,,---,0.00,VWS V13.01,2013-02-05 16:39:00,
2013-02-05 08:44:00,50.2,25.6,29.95,North,353,1.0,0.0,38,0.00,,---,0.00,VWS V13.01,2013-02-05 16:44:00,
2013-02-05 08:49:00,50.9,26.2,29.95,NNW,336,5.8,5.8,38,0.00,,---,0.00,VWS V13.01,2013-02-05 16:49:00,
2013-02-05 08:54:00,51.6,26.9,29.95,NNW,336,1.0,0.0,38,0.00,,---,0.00,VWS V13.01,2013-02-05 16:54:00,
2013-02-05 08:59:00,52.3,26.9,29.95,North,357,1.0,3.1,37,0.00,,---,0.00,VWS V13.01,2013-02-05 16:59:00,
2013-02-05 09:04:00,53.2,27.7,29.95,North,350,1.0,0.0,37,0.00,,---,0.00,VWS V13.01,2013-02-05 17:04:00,
2013-02-05 09:09:00,54.0,27.6,29.98,North,353,1.0,0.0,36,0.00,,---,0.00,VWS V13.01,2013-02-05 17:09:00,
2013-02-05 09:14:00,55.2,28.8,29.98,North,357,1.0,0.0,36,0.00,,---,0.00,VWS V13.01,2013-02-05 17:14:00,
2013-02-05 09:19:00,55.9,28.7,29.98,North,357,1.0,0.0,35,0.00,,---,0.00,VWS V13.01,2013-02-05 17:19:00,
2013-02-05 09:24:00,56.7,28.6,29.98,NW,317,1.0,0.0,34,0.00,,---,0.00,VWS V13.01,2013-02-05 17:24:00,
2013-02-05 09:29:00,57.6,28.7,29.98,NNW,331,1.0,0.0,33,0.00,,---,0.00,VWS V13.01,2013-02-05 17:29:00,
2013-02-05 09:34:00,58.5,28.7,29.98,North,0,5.8,5.8,32,0.00,,---,0.00,VWS V13.01,2013-02-05 17:34:00,
2013-02-05 09:39:00,59.5,29.7,29.98,North,0,7.4,7.4,32,0.00,,---,0.00,VWS V13.01,2013-02-05 17:39:00,
2013-02-05 09:44:00,61.0,30.9,29.98,NNW,340,6.6,6.6,32,0.00,,---,0.00,VWS V13.01,2013-02-05 17:44:00,
2013-02-05 09:49:00,62.1,31.1,29.98,NNW,341,1.0,3.6,31,0.00,,---,0.00,VWS V13.01,2013-02-05 17:49:00,
2013-02-05 09:54:00,63.0,31.9,29.98,NNW,342,1.0,0.0,31,0.00,,---,0.00,VWS V13.01,2013-02-05 17:54:00,
2013-02-05 09:59:00,63.9,31.9,29.98,NNW,343,1.0,0.0,30,0.00,,---,0.00,VWS V13.01,2013-02-05 17:59:00,
2013-02-05 10:04:00,64.0,30.3,29.98,NNW,343,1.0,0.0,28,0.00,,---,0.00,VWS V13.01,2013-02-05 18:04:00,
2013-02-05 10:09:00,64.8,30.9,29.98,NNW,343,1.0,0.0,28,0.00,,---,0.00,VWS V13.01,2013-02-05 18:09:00,
2013-02-05 10:14:00,65.3,31.4,29.98,SSE,157,1.0,0.0,28,0.00,,---,0.00,VWS V13.01,2013-02-05 18:14:00,
2013-02-05 10:19:00,65.8,31.0,29.98,South,181,1.0,0.0,27,0.00,,---,0.00,VWS V13.01,2013-02-05 18:19:00,
2013-02-05 10:24:00,66.2,31.3,29.98,West,266,7.4,7.4,27,0.00,,---,0.00,VWS V13.01,2013-02-05 18:24:00,
2013-02-05 10:29:00,66.4,30.5,29.98,South,174,1.0,0.0,26,0.00,,---,0.00,VWS V13.01,2013-02-05 18:29:00,
2013-02-05 10:34:00,66.4,29.5,29.98,SSE,153,1.0,0.0,25,0.00,,---,0.00,VWS V13.01,2013-02-05 18:34:00,
2013-02-05 10:39:00,66.2,29.4,29.95,South,170,1.0,0.0,25,0.00,,---,0.00,VWS V13.01,2013-02-05 18:39:00,
2013-02-05 10:44:00,66.4,29.5,29.95,North,3,10.7,10.7,25,0.00,,---,0.00,VWS V13.01,2013-02-05 18:44:00,
2013-02-05 10:49:00,66.6,29.7,29.95,North,357,6.6,6.6,25,0.00,,---,0.00,VWS V13.01,2013-02-05 18:49:00,
2013-02-05 10:54:00,66.7,29.8,29.98,NNE,27,9.9,9.9,25,0.00,,---,0.00,VWS V13.01,2013-02-05 18:54:00,
2013-02-05 10:59:00,66.7,29.8,29.98,North,3,7.4,7.4,25,0.00,,---,0.00,VWS V13.01,2013-02-05 18:59:00,
2013-02-05 11:04:00,66.6,29.7,29.98,NNW,328,7.4,7.4,25,0.00,,---,0.00,VWS V13.01,2013-02-05 19:04:00,
2013-02-05 11:09:00,66.2,29.4,29.95,North,9,9.9,9.9,25,0.00,,---,0.00,VWS V13.01,2013-02-05 19:09:00,
2013-02-05 11:14:00,65.7,28.9,29.95,NNE,16,6.6,6.6,25,0.00,,---,0.00,VWS V13.01,2013-02-05 19:14:00,
2013-02-05 11:19:00,65.1,28.5,29.95,NE,46,6.6,6.6,25,0.00,,---,0.00,VWS V13.01,2013-02-05 19:19:00,
2013-02-05 11:24:00,64.8,28.1,29.95,NNW,348,11.5,11.5,25,0.00,,---,0.00,VWS V13.01,2013-02-05 19:24:00,
2013-02-05 11:29:00,64.6,28.0,29.95,North,353,8.2,8.2,25,0.00,,---,0.00,VWS V13.01,2013-02-05 19:29:00,
2013-02-05 11:34:00,64.2,27.7,29.95,NW,307,6.6,6.6,25,0.00,,---,0.00,VWS V13.01,2013-02-05 19:34:00,
2013-02-05 11:39:00,64.0,28.5,29.95,NNW,345,6.6,6.6,26,0.00,,---,0.00,VWS V13.01,2013-02-05 19:39:00,
2013-02-05 11:44:00,63.9,28.3,29.95,NNW,342,1.0,4.0,26,0.00,,---,0.00,VWS V13.01,2013-02-05 19:44:00,
2013-02-05 11:49:00,63.9,28.3,29.95,SSW,206,1.0,0.0,26,0.00,,---,0.00,VWS V13.01,2013-02-05 19:49:00,
2013-02-05 11:54:00,63.9,28.3,29.92,North,0,1.0,3.1,26,0.00,,---,0.00,VWS V13.01,2013-02-05 19:54:00,
2013-02-05 11:59:00,63.9,28.3,29.92,North,357,8.2,8.2,26,0.00,,---,0.00,VWS V13.01,2013-02-05 19:59:00,
2013-02-05 12:05:00,63.9,28.3,29.92,NNE,12,1.0,3.6,26,0.00,,---,0.00,VWS V13.01,2013-02-05 20:05:00,
2013-02-05 12:10:00,64.0,28.5,29.92,North,9,8.2,8.2,26,0.00,,---,0.00,VWS V13.01,2013-02-05 20:10:00,
2013-02-05 12:15:00,64.2,28.6,29.92,WNW,301,1.0,4.0,26,0.00,,---,0.00,VWS V13.01,2013-02-05 20:15:00,
2013-02-05 12:20:00,64.2,28.6,29.92,NNW,330,8.2,8.2,26,0.00,,---,0.00,VWS V13.01,2013-02-05 20:20:00,
2013-02-05 12:25:00,64.2,28.6,29.92,NNW,343,10.7,10.7,26,0.00,,---,0.00,VWS V13.01,2013-02-05 20:25:00,
2013-02-05 12:30:00,64.2,28.6,29.92,NNW,346,7.4,7.4,26,0.00,,---,0.00,VWS V13.01,2013-02-05 20:30:00,
2013-02-05 12:35:00,64.2,28.6,29.92,NNW,345,8.2,8.2,26,0.00,,---,0.00,VWS V13.01,2013-02-05 20:35:00,
2013-02-05 12:40:00,64.2,28.6,29.92,WSW,237,5.8,5.8,26,0.00,,---,0.00,VWS V13.01,2013-02-05 20:40:00,
2013-02-05 12:45:00,64.4,27.8,29.92,SW,225,5.8,5.8,25,0.00,,---,0.00,VWS V13.01,2013-02-05 20:45:00,
2013-02-05 12:50:00,64.4,27.8,29.92,NNE,15,12.3,12.3,25,0.00,,---,0.00,VWS V13.01,2013-02-05 20:50:00,
2013-02-05 12:55:00,64.4,27.8,29.92,North,357,8.2,8.2,25,0.00,,---,0.00,VWS V13.01,2013-02-05 20:55:00,
2013-02-05 13:00:00,64.4,27.8,29.92,NNE,15,8.2,8.2,25,0.00,,---,0.00,VWS V13.01,2013-02-05 21:00:00,
2013-02-05 13:05:00,64.6,29.0,29.92,NNW,340,13.1,13.1,26,0.00,,---,0.00,VWS V13.01,2013-02-05 21:05:00,
2013-02-05 13:10:00,64.6,29.0,29.89,North,353,6.6,6.6,26,0.00,,---,0.00,VWS V13.01,2013-02-05 21:10:00,
2013-02-05 13:15:00,64.6,29.0,29.89,NE,38,1.0,0.0,26,0.00,,---,0.00,VWS V13.01,2013-02-05 21:15:00,
2013-02-05 13:20:00,64.4,28.8,29.89,NNE,17,5.0,5.0,26,0.00,,---,0.00,VWS V13.01,2013-02-05 21:20:00,
2013-02-05 13:25:00,64.4,28.8,29.89,North,0,6.6,6.6,26,0.00,,---,0.00,VWS V13.01,2013-02-05 21:25:00,
2013-02-05 13:29:00,64.6,29.0,29.89,North,353,1.0,0.0,26,0.00,,---,0.00,VWS V13.01,2013-02-05 21:29:00,
2013-02-05 13:34:00,64.6,29.0,29.89,NNE,24,6.6,6.6,26,0.00,,---,0.00,VWS V13.01,2013-02-05 21:34:00,
2013-02-05 13:40:00,64.8,29.1,29.89,SW,218,1.0,0.0,26,0.00,,---,0.00,VWS V13.01,2013-02-05 21:40:00,
2013-02-05 13:44:00,64.8,29.1,29.89,NE,37,1.0,0.0,26,0.00,,---,0.00,VWS V13.01,2013-02-05 21:44:00,
2013-02-05 13:50:00,64.8,30.0,29.89,WNW,285,14.7,14.7,27,0.00,,---,0.00,VWS V13.01,2013-02-05 21:50:00,
2013-02-05 13:55:00,64.8,30.0,29.89,North,349,9.9,9.9,27,0.00,,---,0.00,VWS V13.01,2013-02-05 21:55:00,
2013-02-05 14:00:00,64.8,30.0,29.89,North,357,12.3,12.3,27,0.00,,---,0.00,VWS V13.01,2013-02-05 22:00:00,
2013-02-05 14:05:00,64.9,30.2,29.89,North,1,6.6,6.6,27,0.00,,---,0.00,VWS V13.01,2013-02-05 22:05:00,
2013-02-05 14:10:00,65.1,30.3,29.89,North,0,7.4,7.4,27,0.00,,---,0.00,VWS V13.01,2013-02-05 22:10:00,
2013-02-05 14:14:00,65.1,30.3,29.89,NNE,13,1.0,4.0,27,0.00,,---,0.00,VWS V13.01,2013-02-05 22:14:00,
2013-02-05 14:19:00,65.5,30.6,29.89,North,0,6.6,6.6,27,0.00,,---,0.00,VWS V13.01,2013-02-05 22:19:00,
2013-02-05 14:25:00,65.5,30.6,29.89,North,353,7.4,7.4,27,0.00,,---,0.00,VWS V13.01,2013-02-05 22:25:00,
2013-02-05 14:30:00,65.7,30.8,29.89,North,353,5.8,5.8,27,0.00,,---,0.00,VWS V13.01,2013-02-05 22:30:00,
2013-02-05 14:35:00,65.7,30.8,29.89,NNE,28,1.0,2.7,27,0.00,,---,0.00,VWS V13.01,2013-02-05 22:35:00,
2013-02-05 14:40:00,65.5,31.5,29.86,North,353,10.7,10.7,28,0.00,,---,0.00,VWS V13.01,2013-02-05 22:40:00,
2013-02-05 14:45:00,65.3,31.4,29.86,NW,326,6.6,6.6,28,0.00,,---,0.00,VWS V13.01,2013-02-05 22:45:00,
2013-02-05 14:50:00,65.3,31.4,29.86,North,4,11.5,11.5,28,0.00,,---,0.00,VWS V13.01,2013-02-05 22:50:00,
2013-02-05 14:55:00,65.5,32.4,29.86,North,0,5.8,5.8,29,0.00,,---,0.00,VWS V13.01,2013-02-05 22:55:00,
2013-02-05 15:00:00,65.5,32.4,29.86,NNE,25,6.6,6.6,29,0.00,,---,0.00,VWS V13.01,2013-02-05 23:00:00,
2013-02-05 15:05:00,65.5,33.3,29.86,NNW,345,12.3,12.3,30,0.00,,---,0.00,VWS V13.01,2013-02-05 23:05:00,
2013-02-05 15:10:00,65.3,33.1,29.86,NNW,333,10.7,10.7,30,0.00,,---,0.00,VWS V13.01,2013-02-05 23:10:00,
2013-02-05 15:15:00,65.1,32.9,29.86,NNW,331,7.4,7.4,30,0.00,,---,0.00,VWS V13.01,2013-02-05 23:15:00,
2013-02-05 15:20:00,64.8,33.5,29.86,North,10,10.7,10.7,31,0.00,,---,0.00,VWS V13.01,2013-02-05 23:20:00,
2013-02-05 15:25:00,64.4,33.1,29.86,NNE,32,11.5,11.5,31,0.00,,---,0.00,VWS V13.01,2013-02-05 23:25:00,
2013-02-05 15:30:00,64.2,34.5,29.86,North,357,5.8,5.8,33,0.00,,---,0.00,VWS V13.01,2013-02-05 23:30:00,
2013-02-05 15:35:00,64.0,34.4,29.86,North,357,10.7,10.7,33,0.00,,---,0.00,VWS V13.01,2013-02-05 23:35:00,
2013-02-05 15:40:00,63.5,33.9,29.86,NW,325,7.4,7.4,33,0.00,,---,0.00,VWS V13.01,2013-02-05 23:40:00,
2013-02-05 15:45:00,63.0,33.4,29.86,North,0,8.2,8.2,33,0.00,,---,0.00,VWS V13.01,2013-02-05 23:45:00,
2013-02-05 15:50:00,62.1,33.4,29.86,SW,231,5.8,5.8,34,0.00,,---,0.00,VWS V13.01,2013-02-05 23:50:00,
2013-02-05 15:55:00,61.0,32.4,29.86,NNE,29,5.8,5.8,34,0.00,,---,0.00,VWS V13.01,2013-02-05 23:55:00,
2013-02-05 16:00:00,60.1,32.4,29.86,ENE,68,10.7,10.7,35,0.00,,---,0.00,VWS V13.01,2013-02-06 00:00:00,
2013-02-05 16:05:00,59.5,32.6,29.86,North,0,8.2,8.2,36,0.00,,---,0.00,VWS V13.01,2013-02-06 00:05:00,
2013-02-05 16:10:00,59.2,33.0,29.86,North,353,10.7,10.7,37,0.00,,---,0.00,VWS V13.01,2013-02-06 00:10:00,
2013-02-05 16:15:00,59.0,32.8,29.86,North,6,6.6,6.6,37,0.00,,---,0.00,VWS V13.01,2013-02-06 00:15:00,
2013-02-05 16:20:00,58.8,33.3,29.86,NNW,339,8.2,8.2,38,0.00,,---,0.00,VWS V13.01,2013-02-06 00:20:00,
2013-02-05 16:25:00,58.6,33.8,29.86,NNE,19,7.4,7.4,39,0.00,,---,0.00,VWS V13.01,2013-02-06 00:25:00,
2013-02-05 16:30:00,58.5,33.6,29.86,NNE,27,6.6,6.6,39,0.00,,---,0.00,VWS V13.01,2013-02-06 00:30:00,
2013-02-05 16:35:00,58.1,33.3,29.86,North,353,9.9,9.9,39,0.00,,---,0.00,VWS V13.01,2013-02-06 00:35:00,
2013-02-05 16:40:00,57.9,33.8,29.86,NNW,338,5.8,5.8,40,0.00,,---,0.00,VWS V13.01,2013-02-06 00:40:00,
2013-02-05 16:45:00,57.9,33.8,29.86,North,357,5.8,5.8,40,0.00,,---,0.00,VWS V13.01,2013-02-06 00:45:00,
2013-02-05 16:50:00,57.7,33.6,29.86,North,0,9.9,9.9,40,0.00,,---,0.00,VWS V13.01,2013-02-06 00:50:00,
2013-02-05 16:55:00,57.6,33.4,29.86,NNE,12,1.0,3.1,40,0.00,,---,0.00,VWS V13.01,2013-02-06 00:55:00,
2013-02-05 17:00:00,57.2,33.7,29.86,NNE,32,12.3,12.3,41,0.00,,---,0.00,VWS V13.01,2013-02-06 01:00:00,
2013-02-05 17:05:00,57.0,33.6,29.86,North,9,1.0,0.0,41,0.00,,---,0.00,VWS V13.01,2013-02-06 01:05:00,
2013-02-05 17:10:00,56.7,33.2,29.86,North,357,9.9,9.9,41,0.00,,---,0.00,VWS V13.01,2013-02-06 01:10:00,
2013-02-05 17:15:00,56.3,33.5,29.86,NE,44,5.8,5.8,42,0.00,,---,0.00,VWS V13.01,2013-02-06 01:15:00,
2013-02-05 17:19:00,55.9,33.8,29.86,North,11,6.6,6.6,43,0.00,,---,0.00,VWS V13.01,2013-02-06 01:19:00,
2013-02-05 17:24:00,55.6,33.5,29.86,North,357,7.4,7.4,43,0.00,,---,0.00,VWS V13.01,2013-02-06 01:24:00,
2013-02-05 17:30:00,55.2,33.7,29.86,NE,35,9.9,9.9,44,0.00,,---,0.00,VWS V13.01,2013-02-06 01:30:00,
2013-02-05 17:35:00,54.9,33.9,29.86,North,357,12.3,12.3,45,0.00,,---,0.00,VWS V13.01,2013-02-06 01:35:00,
2013-02-05 17:39:00,54.5,33.6,29.86,North,353,10.7,10.7,45,0.00,,---,0.00,VWS V13.01,2013-02-06 01:39:00,
2013-02-05 17:44:00,54.1,33.8,29.86,North,353,13.1,13.1,46,0.00,,---,0.00,VWS V13.01,2013-02-06 01:44:00,
2013-02-05 17:50:00,53.8,33.5,29.86,NE,41,7.4,7.4,46,0.00,,---,0.00,VWS V13.01,2013-02-06 01:50:00,
2013-02-05 17:55:00,53.6,33.3,29.89,NNE,23,6.6,6.6,46,0.00,,---,0.00,VWS V13.01,2013-02-06 01:55:00,
2013-02-05 18:00:00,53.2,33.5,29.89,NNE,33,6.6,6.6,47,0.00,,---,0.00,VWS V13.01,2013-02-06 02:00:00,
2013-02-05 18:05:00,53.1,33.4,29.89,NNW,337,13.1,13.1,47,0.00,,---,0.00,VWS V13.01,2013-02-06 02:05:00,
2013-02-05 18:10:00,52.9,33.2,29.86,WSW,238,1.0,0.0,47,0.00,,---,0.00,VWS V13.01,2013-02-06 02:10:00,
2013-02-05 18:15:00,52.7,33.0,29.86,NNE,28,6.6,6.6,47,0.00,,---,0.00,VWS V13.01,2013-02-06 02:15:00,
2013-02-05 18:20:00,52.5,32.9,29.86,NW,317,1.0,0.0,47,0.00,,---,0.00,VWS V13.01,2013-02-06 02:20:00,
2013-02-05 18:25:00,52.2,33.1,29.89,NNE,26,1.0,0.0,48,0.00,,---,0.00,VWS V13.01,2013-02-06 02:25:00,
2013-02-05 18:30:00,52.0,32.9,29.89,NE,47,8.2,8.2,48,0.00,,---,0.00,VWS V13.01,2013-02-06 02:30:00,
2013-02-05 18:35:00,51.8,33.3,29.89,NE,40,7.4,7.4,49,0.00,,---,0.00,VWS V13.01,2013-02-06 02:35:00,
2013-02-05 18:40:00,51.6,33.6,29.89,North,0,8.2,8.2,50,0.00,,---,0.00,VWS V13.01,2013-02-06 02:40:00,
2013-02-05 18:45:00,51.6,33.6,29.89,North,353,5.8,5.8,50,0.00,,---,0.00,VWS V13.01,2013-02-06 02:45:00,
2013-02-05 18:50:00,51.4,33.9,29.89,NNE,17,6.6,6.6,51,0.00,,---,0.00,VWS V13.01,2013-02-06 02:50:00,
2013-02-05 18:55:00,51.3,33.8,29.89,NNE,21,6.6,6.6,51,0.00,,---,0.00,VWS V13.01,2013-02-06 02:55:00,
2013-02-05 19:00:00,51.3,33.8,29.89,NNE,15,7.4,7.4,51,0.00,,---,0.00,VWS V13.01,2013-02-06 03:00:00,
2013-02-05 19:05:00,51.3,33.8,29.89,NNE,20,1.0,0.0,51,0.00,,---,0.00,VWS V13.01,2013-02-06 03:05:00,
2013-02-05 19:10:00,51.1,33.6,29.89,NNE,29,1.0,0.0,51,0.00,,---,0.00,VWS V13.01,2013-02-06 03:10:00,
2013-02-05 19:14:00,50.9,33.4,29.89,North,9,5.8,5.8,51,0.00,,---,0.00,VWS V13.01,2013-02-06 03:14:00,
2013-02-05 19:19:00,50.9,33.4,29.89,NE,49,1.0,0.0,51,0.00,,---,0.00,VWS V13.01,2013-02-06 03:19:00,
2013-02-05 19:25:00,50.7,33.8,29.89,NNE,21,1.0,0.0,52,0.00,,---,0.00,VWS V13.01,2013-02-06 03:25:00,
2013-02-05 19:30:00,50.5,33.6,29.89,SW,219,1.0,0.0,52,0.00,,---,0.00,VWS V13.01,2013-02-06 03:30:00,
2013-02-05 19:35:00,50.4,33.4,29.89,NNE,13,6.6,6.6,52,0.00,,---,0.00,VWS V13.01,2013-02-06 03:35:00,
2013-02-05 19:40:00,50.2,33.7,29.89,NNE,30,5.8,5.8,53,0.00,,---,0.00,VWS V13.01,2013-02-06 03:40:00,
2013-02-05 19:45:00,50.2,34.2,29.89,NNE,20,1.0,2.7,54,0.00,,---,0.00,VWS V13.01,2013-02-06 03:45:00,
2013-02-05 19:49:00,50.0,34.0,29.89,NNE,21,5.0,5.0,54,0.00,,---,0.00,VWS V13.01,2013-02-06 03:49:00,
2013-02-05 19:54:00,49.8,34.3,29.89,North,357,1.0,0.0,55,0.00,,---,0.00,VWS V13.01,2013-02-06 03:54:00,
2013-02-05 19:59:00,49.8,34.8,29.89,NNE,24,7.4,7.4,56,0.00,,---,0.00,VWS V13.01,2013-02-06 03:59:00,
2013-02-05 20:04:00,49.6,35.0,29.89,NNE,28,7.4,7.4,57,0.00,,---,0.00,VWS V13.01,2013-02-06 04:04:00,
2013-02-05 20:09:00,49.5,35.3,29.89,NNE,22,6.6,6.6,58,0.00,,---,0.00,VWS V13.01,2013-02-06 04:09:00,
2013-02-05 20:14:00,49.3,35.1,29.89,NNE,12,8.2,8.2,58,0.00,,---,0.00,VWS V13.01,2013-02-06 04:14:00,
2013-02-05 20:19:00,49.3,35.6,29.89,North,357,5.0,5.0,59,0.00,,---,0.00,VWS V13.01,2013-02-06 04:19:00,
2013-02-05 20:24:00,49.1,35.8,29.89,North,4,8.2,8.2,60,0.00,,---,0.00,VWS V13.01,2013-02-06 04:24:00,
2013-02-05 20:29:00,49.1,35.8,29.89,NNE,17,7.4,7.4,60,0.00,,---,0.00,VWS V13.01,2013-02-06 04:29:00,
2013-02-05 20:34:00,48.9,36.1,29.89,NNE,28,6.6,6.6,61,0.00,,---,0.00,VWS V13.01,2013-02-06 04:34:00,
2013-02-05 20:39:00,48.9,36.5,29.89,North,353,8.2,8.2,62,0.00,,---,0.00,VWS V13.01,2013-02-06 04:39:00,
2013-02-05 20:44:00,48.7,36.3,29.89,NNE,18,1.0,0.0,62,0.00,,---,0.00,VWS V13.01,2013-02-06 04:44:00,
2013-02-05 20:49:00,48.6,36.5,29.89,NW,322,1.0,0.0,63,0.00,,---,0.00,VWS V13.01,2013-02-06 04:49:00,
2013-02-05 20:54:00,48.6,36.5,29.89,NNE,23,7.4,7.4,63,0.00,,---,0.00,VWS V13.01,2013-02-06 04:54:00,
2013-02-05 20:59:00,48.4,36.8,29.89,North,7,6.6,6.6,64,0.00,,---,0.00,VWS V13.01,2013-02-06 04:59:00,
2013-02-05 21:00:00,48.4,36.8,29.89,North,7,6.6,6.6,64,0.00,,---,0.00,VWS V13.01,2013-02-06 05:00:00,
2013-02-05 21:05:00,48.4,36.8,29.89,SSW,203,1.0,0.0,64,0.00,,---,0.00,VWS V13.01,2013-02-06 05:05:00,
2013-02-05 21:10:00,48.2,37.0,29.89,NE,42,5.8,5.8,65,0.00,,---,0.00,VWS V13.01,2013-02-06 05:10:00,
2013-02-05 21:15:00,48.0,37.2,29.89,NNE,28,5.0,5.0,66,0.00,,---,0.00,VWS V13.01,2013-02-06 05:15:00,
2013-02-05 21:20:00,48.0,37.2,29.89,NNE,19,1.0,0.0,66,0.00,,---,0.00,VWS V13.01,2013-02-06 05:20:00,
2013-02-05 21:25:00,47.8,37.4,29.89,NNE,28,1.0,0.0,67,0.00,,---,0.00,VWS V13.01,2013-02-06 05:25:00,
2013-02-05 21:30:00,47.8,37.4,29.89,NNE,24,1.0,0.0,67,0.00,,---,0.00,VWS V13.01,2013-02-06 05:30:00,
2013-02-05 21:35:00,47.8,37.8,29.89,NNE,15,8.2,8.2,68,0.00,,---,0.00,VWS V13.01,2013-02-06 05:35:00,
2013-02-05 21:40:00,47.7,37.6,29.89,NNW,346,1.0,3.1,68,0.00,,---,0.00,VWS V13.01,2013-02-06 05:40:00,
2013-02-05 21:45:00,47.7,37.6,29.89,NW,318,8.2,8.2,68,0.00,,---,0.00,VWS V13.01,2013-02-06 05:45:00,
2013-02-05 21:50:00,47.7,37.6,29.89,NW,310,10.7,10.7,68,0.00,,---,0.00,VWS V13.01,2013-02-06 05:50:00,
2013-02-05 21:55:00,47.7,38.0,29.89,NNE,25,11.5,11.5,69,0.00,,---,0.00,VWS V13.01,2013-02-06 05:55:00,
2013-02-05 22:00:00,47.7,38.0,29.89,NNE,12,6.6,6.6,69,0.00,,---,0.00,VWS V13.01,2013-02-06 06:00:00,
2013-02-05 22:05:00,47.5,37.8,29.89,North,357,6.6,6.6,69,0.00,,---,0.00,VWS V13.01,2013-02-06 06:05:00,
2013-02-05 22:10:00,47.5,37.8,29.89,NNW,341,6.6,6.6,69,0.00,,---,0.00,VWS V13.01,2013-02-06 06:10:00,
2013-02-05 22:15:00,47.3,37.7,29.89,North,8,7.4,7.4,69,0.00,,---,0.00,VWS V13.01,2013-02-06 06:15:00,
2013-02-05 22:20:00,47.3,38.0,29.89,North,353,10.7,10.7,70,0.00,,---,0.00,VWS V13.01,2013-02-06 06:20:00,
2013-02-05 22:25:00,47.1,37.8,29.89,NNW,345,10.7,10.7,70,0.00,,---,0.00,VWS V13.01,2013-02-06 06:25:00,
2013-02-05 22:30:00,47.1,37.8,29.89,North,353,6.6,6.6,70,0.00,,---,0.00,VWS V13.01,2013-02-06 06:30:00,
2013-02-05 22:35:00,46.9,37.7,29.89,North,2,7.4,7.4,70,0.00,,---,0.00,VWS V13.01,2013-02-06 06:35:00,
2013-02-05 22:40:00,46.9,37.7,29.89,North,357,5.8,5.8,70,0.00,,---,0.00,VWS V13.01,2013-02-06 06:40:00,
2013-02-05 22:45:00,46.9,38.0,29.89,North,0,6.6,6.6,71,0.00,,---,0.00,VWS V13.01,2013-02-06 06:45:00,
2013-02-05 22:50:00,46.9,38.0,29.89,NNE,25,5.8,5.8,71,0.00,,---,0.00,VWS V13.01,2013-02-06 06:50:00,
2013-02-05 22:55:00,46.8,37.9,29.89,NNE,17,5.8,5.8,71,0.00,,---,0.00,VWS V13.01,2013-02-06 06:55:00,
2013-02-05 23:00:00,46.8,37.9,29.89,North,353,10.7,10.7,71,0.00,,---,0.00,VWS V13.01,2013-02-06 07:00:00,
2013-02-05 23:05:00,46.8,37.9,29.89,North,0,6.6,6.6,71,0.00,,---,0.00,VWS V13.01,2013-02-06 07:05:00,
2013-02-05 23:10:00,46.9,38.0,29.89,NNW,348,5.8,5.8,71,0.00,,---,0.00,VWS V13.01,2013-02-06 07:10:00,
2013-02-05 23:15:00,46.9,38.4,29.89,NNW,343,1.0,0.0,72,0.00,,---,0.00,VWS V13.01,2013-02-06 07:15:00,
2013-02-05 23:20:00,46.9,38.4,29.89,North,353,5.8,5.8,72,0.00,,---,0.00,VWS V13.01,2013-02-06 07:20:00,
2013-02-05 23:25:00,46.9,38.4,29.89,North,353,7.4,7.4,72,0.00,,---,0.00,VWS V13.01,2013-02-06 07:25:00,
2013-02-05 23:30:00,46.9,38.4,29.89,North,0,7.4,7.4,72,0.00,,---,0.00,VWS V13.01,2013-02-06 07:30:00,
2013-02-05 23:35:00,46.9,38.4,29.89,North,0,5.8,5.8,72,0.00,,---,0.00,VWS V13.01,2013-02-06 07:35:00,
2013-02-05 23:40:00,46.9,38.4,29.89,NNW,346,1.0,0.0,72,0.00,,---,0.00,VWS V13.01,2013-02-06 07:40:00,
2013-02-05 23:45:00,46.9,38.4,29.89,North,353,7.4,7.4,72,0.00,,---,0.00,VWS V13.01,2013-02-06 07:45:00,
2013-02-05 23:50:00,46.9,38.4,29.89,North,353,1.0,0.0,72,0.00,,---,0.00,VWS V13.01,2013-02-06 07:50:00,
2013-02-05 23:55:00,46.9,38.4,29.89,North,357,1.0,2.2,72,0.00,,---,0.00,VWS V13.01,2013-02-06 07:55:00,